Regional Weather Roundup
Issued by NWS

Home | Current Version | Previous Version | Graphics & Text | Print | Product List | Glossary On
Versions: 1 2 3 4 5 6 7 8 9 10 11 12 13 14 15 16 17 18 19 20 21 22 23 24 25 26 27 28 29 30 31 32 33 34 35 36 37 38 39 40 41 42 43 44 45 46 47 48 49 50
000
ASUS45 KSLC 210110
RWRUT

UTAH REGIONAL WEATHER ROUNDUP
NATIONAL WEATHER SERVICE SALT LAKE CITY UT
700 PM MDT SUN AUG 20 2017

UTZ001>011-023>025-210200-

NORTHERN UTAH

CITY           SKY/WX    TMP DP  RH WIND       PRES   REMARKS
BRIGHAM CITY     N/A     90  28  10 SE5       29.97S
HILL AFB       SUNNY     88  37  16 NW3       30.00F
LOGAN          SUNNY     90  37  15 SW3       29.97F
OGDEN          SUNNY     89  36  15 NW6       29.96F
SALT LAKE CITY MOSUNNY   93  39  15 N10       29.94F
TOOELE VALLEY  SUNNY     86  50  28 N9        29.97S
WENDOVER       SUNNY     91  35  13 SE6       29.95S
HEBER CITY     MOSUNNY   88  30  12 W3        30.03F
WEST JORDAN    SUNNY     89  54  30 NW10      29.99S

$$

UTZ011>015-024>027-210200-

CENTRAL/NORTHEAST UTAH

CITY           SKY/WX    TMP DP  RH WIND       PRES   REMARKS
PROVO AIRPORT  MOSUNNY   86  61  42 VRB6      29.97S
MOAB/CANYONLAN MOSUNNY   90  34  13 NW23      29.94R
DELTA          CLOUDY    82  37  20 S23G30    30.00S
PRICE          CLOUDY    81  38  21 W7        30.10F
ROOSEVELT      SUNNY     84  32  15 CALM      30.05F
VERNAL         CLOUDY    82  38  20 N13       30.05R

$$

UTZ013>016-019>022-027-210200-

SOUTHERN UTAH

CITY           SKY/WX    TMP DP  RH WIND       PRES   REMARKS
BRYCE CANYON   CLOUDY    62  49  62 SE9       30.30R
CEDAR CITY     PTSUNNY   83  41  22 SW16      30.08S THUNDER
MILFORD        PTSUNNY   86  40  19 S17G24    30.01S
ST GEORGE      PTCLDY    89  48  24 S26G32    29.89S
HANKSVILLE     PTSUNNY   88  34  14 W10G26    30.02R
BLANDING       CLOUDY    80  38  22 SE14      30.17R

$$

REGIONAL REPORTS     COLORADO/ARIZONA

CITY           SKY/WX    TMP DP  RH WIND       PRES   REMARKS
CRAIG, CO      CLOUDY    75  40  28 SE7       30.13R
GRAND JUNCTION CLOUDY    91  34  13 W9        29.96S
RIFLE, CO      CLOUDY    86  32  14 NW15G23   30.03F
MONTROSE, CO   CLOUDY    80  47  31 SW12      30.08S
CORTEZ, CO     CLOUDY    73  48  41 CALM      30.11F
COLORADO CITY    N/A     77  50  38 SE5       30.13R
PAGE, AZ       PTSUNNY   89  38  16 SW10G16   29.97R
GRAND CANYON   CLOUDY    66  47  50 N3        30.24S
KINGMAN, AZ    MOSUNNY   93  46  19 SW10G21   29.95S
FLAGSTAFF, AZ  CLOUDY    56  52  86 VRB6      30.27S

$$

REGIONAL REPORTS    NEVADA/IDAHO/WYOMING

CITY           SKY/WX    TMP DP  RH WIND       PRES   REMARKS
LAS VEGAS, NV  PTSUNNY   99  42  14 SE5       29.81S HX  94
ELY, NY        SUNNY     85  19   9 SW7       30.09S
ELKO, NV       MOSUNNY   88  30  12 N8        30.00S
POCATELLO, ID  SUNNY     83  34  17 W13       30.01F
BURLEY, ID     SUNNY     78  39  24 W7        30.00F
FORT BRIDGER,  MOCLDY    74  38  27 SE9       30.21F
EVANSTON, WY   SUNNY     79  30  16 W15       30.19S
ROCK SPRINGS,  CLOUDY    75  33  21 SW17      30.16F
KEMMERER, WY     N/A     77  27  15 NW14G23   30.20S

$$



USA.gov is the U.S. government's official web portal to all federal, state and local government web resources and services.